{"data":{"norad_id":48056,"intl_designator":"2021-025Q","name":"ONEWEB-0162","alt_names":[],"object_type":"PAYLOAD","status":"ACTIVE","operator":null,"country":"UK","launch_date":"2021-03-25","launch_site_code":"VOSTO","launch_vehicle":null,"mission":null,"orbit_class":"UNKNOWN","rcs_meters":null,"size_class":null,"mass_kg":null,"dimensions":null,"purposes":["comms"],"wikipedia_slug":null,"has_3d_model":false,"image_url":null,"decayed_at":null,"tle_current":{"epoch":"2026-09-20T01:07:54.503040Z","epoch_age_seconds":64920,"freshness":"FRESH","line1":"1 48056U 21025Q   26263.04715860 -.00000094  00000+0 -29205-3 0  9998","line2":"2 48056  87.8917 301.3493 0001947  98.7612 261.3738 13.13468770265993","mean_motion":13.1346877,"eccentricity":0.0001947,"inclination_deg":87.8917,"raan_deg":301.3493,"arg_perigee_deg":98.7612,"mean_anomaly_deg":261.3738,"bstar":-0.00029205,"rev_number":26599,"period_min":109.63336417964,"perigee_km":1208.2927715158,"apogee_km":1211.2475025549,"semimajor_km":7587.9071370353,"source":"CELESTRAK","updated_at":"2026-09-20T09:00:44.586813Z"}}}